Weather History for PAHO - September, 2012

Change the Weather History Date:

Sunday, September 16, 2012

  Actual Average Record
Temperature  
Mean Temperature 54 °F -  
Max Temperature 57 °F 54 °F 63 °F (1954)
Min Temperature 50 °F 42 °F 26 °F (1939)
Degree Days  
Heating Degree Days 12    
Growing Degree Days 4 (Base 50)    
Moisture  
Dew Point 43 °F    
Average Humidity 67    
Maximum Humidity 83    
Minimum Humidity 52    
Precipitation  
Precipitation 0.19 in - - ()
Sea Level Pressure  
Sea Level Pressure 29.45 in    
Wind  
Wind Speed 9 mph (SSE)    
Max Wind Speed 18 mph    
Max Gust Speed 32 mph    
Visibility 9 miles    
Events Rain    
Averages and records for this station are not official NWS values.
T = Trace of Precipitation, MM = Missing Value Source: NWS Daily Summary

Daily Weather History Graph

Daily Weather History Graph

Search for Another Location

Airport or City:

Trip Planner

Search our weather history database for the weather conditions in past years. The results will help you decide how hot, cold, wet, or windy it might be!

Date:

Astronomy

Sep. 16, 2012 Rise Set
Actual Time 7:38 AM AKDT 8:21 PM AKDT
Civil Twilight 6:56 AM AKDT 9:02 PM AKDT
Nautical Twilight 6:05 AM AKDT 9:53 PM AKDT
Astronomical Twilight 5:08 AM AKDT 10:49 PM AKDT
Moon 8:57 AM AKDT (9/16) 7:57 PM AKDT (9/16)
Length of Visible Light 14h 06m
Length of Day
12h 43m
New Moon, 1% of the Moon is Illuminated
Sep 16
New Moon
Sep 22
First Quarter
Sep 29
Full
Oct 7
Last Quarter
Oct 15
New

Hourly Weather History & Observations

Time (AKDT) Temp. Dew Point Humidity Pressure Visibility Wind Dir Wind Speed Gust Speed Precip Events Conditions
12:53 AM 55.9 °F 44.1 °F 64% 29.43 in 10.0 mi ESE 10.4 mph - 0.00 in   Overcast
1:53 AM 55.9 °F 45.0 °F 67% 29.42 in 10.0 mi East 6.9 mph - N/A   Overcast
2:53 AM 57.9 °F 45.0 °F 62% 29.42 in 10.0 mi Calm Calm - N/A   Overcast
3:53 AM 57.0 °F 46.0 °F 67% 29.41 in 10.0 mi SE 9.2 mph 17.3 mph N/A   Overcast
4:53 AM 55.9 °F 46.9 °F 72% 29.41 in 10.0 mi SE 8.1 mph 19.6 mph N/A   Overcast
5:53 AM 55.9 °F 46.9 °F 72% 29.40 in 10.0 mi Variable 4.6 mph - 0.01 in Rain Light Rain
6:53 AM 55.0 °F 48.0 °F 77% 29.38 in 10.0 mi ESE 6.9 mph - 0.02 in Rain Light Rain
7:53 AM 57.0 °F 48.0 °F 72% 29.37 in 10.0 mi SE 5.8 mph - 0.02 in Rain Light Rain
8:53 AM 55.0 °F 50.0 °F 83% 29.37 in 4.0 mi SSE 8.1 mph - 0.05 in Rain Light Rain
9:53 AM 52.0 °F 46.0 °F 80% 29.39 in 7.0 mi SSW 16.1 mph - 0.04 in Rain Light Rain
10:53 AM 50.0 °F 39.9 °F 68% 29.41 in 10.0 mi SSE 11.5 mph 18.4 mph 0.02 in   Overcast
11:53 AM 51.1 °F 39.0 °F 63% 29.41 in 10.0 mi SSE 12.7 mph 20.7 mph 0.00 in   Overcast
12:53 PM 52.0 °F 37.9 °F 59% 29.42 in 10.0 mi SSE 10.4 mph 21.9 mph N/A   Mostly Cloudy
1:53 PM 53.1 °F 36.0 °F 52% 29.42 in 10.0 mi SSE 15.0 mph 26.5 mph N/A   Mostly Cloudy
2:53 PM 52.0 °F 39.0 °F 61% 29.39 in 10.0 mi SE 18.4 mph 32.2 mph N/A   Mostly Cloudy
3:53 PM 52.0 °F 41.0 °F 66% 29.42 in 10.0 mi SSE 15.0 mph 26.5 mph N/A   Overcast
4:53 PM 51.1 °F 42.1 °F 71% 29.42 in 7.0 mi SSE 18.4 mph 28.8 mph 0.00 in Rain Light Rain
5:53 PM 51.1 °F 42.1 °F 71% 29.43 in 6.0 mi SSE 12.7 mph 20.7 mph 0.03 in Rain Light Rain
6:53 PM 52.0 °F 41.0 °F 66% 29.46 in 10.0 mi SSE 10.4 mph 21.9 mph 0.00 in   Overcast
7:53 PM 52.0 °F 42.1 °F 69% 29.50 in 10.0 mi South 10.4 mph 24.2 mph 0.00 in Rain Light Rain
8:53 PM 52.0 °F 41.0 °F 66% 29.54 in 10.0 mi SSW 11.5 mph 18.4 mph 0.00 in   Overcast
9:53 PM 52.0 °F 39.9 °F 63% 29.59 in 10.0 mi SSW 12.7 mph 18.4 mph 0.00 in   Overcast
10:53 PM 52.0 °F 39.9 °F 63% 29.62 in 10.0 mi South 5.8 mph 16.1 mph N/A   Overcast
11:53 PM 52.0 °F 41.0 °F 66% 29.66 in 10.0 mi South 5.8 mph - N/A   Overcast